Theta_e
322 316 316 311 299 295 290 292 296 297 297 300 303 304 307 307 310 302 326 330 334 336 339 343 346 349 347 347 347 345 344 341 341 340 340 340 341 343 345 344 345 341 339 339 338 336 336 337 338
318 316 310 303 294 287 289 292 296 298 300 303 305 304 305 308 320 325 324 334 335 337 339 342 345 348 348 346 346 344 343 339 338 338 338 339 340 343 345 343 344 339 338 337 336 335 336 337 338
319 313 302 300 291 288 289 294 298 300 302 302 302 306 307 312 324 327 332 334 336 337 338 341 345 348 348 347 346 345 343 341 338 337 338 339 340 343 343 341 340 337 336 336 336 336 337 336 336
309 307 301 294 290 292 293 298 300 299 301 303 303 304 310 316 327 331 336 337 337 337 339 342 346 348 347 347 347 345 344 341 338 337 336 338 339 341 340 338 336 335 335 335 335 335 335 335 337
306 302 295 293 292 294 295 300 301 299 299 299 301 302 308 320 331 333 334 336 338 339 340 343 345 347 347 347 347 346 345 342 339 336 336 336 337 339 338 336 334 333 333 333 333 334 334 333 335
301 299 292 289 291 296 295 299 301 298 299 300 299 305 308 322 329 330 333 333 340 338 341 342 340 343 345 345 345 345 344 343 340 336 335 335 336 336 335 333 332 332 332 332 332 333 332 333 333
300 297 292 292 291 293 296 299 298 297 299 299 303 301 308 317 327 331 331 332 339 340 341 340 341 340 338 341 341 343 343 342 340 338 337 336 336 336 333 332 330 331 331 331 331 331 331 332 332
300 297 292 290 291 292 296 298 299 298 297 302 303 300 305 314 326 329 329 332 337 336 338 337 338 339 340 339 335 337 339 339 339 336 333 331 331 332 330 328 330 329 330 330 330 329 329 330 330
299 292 289 292 292 294 298 296 298 299 300 300 303 305 308 317 327 325 324 325 333 335 335 336 336 336 337 337 334 333 334 334 333 330 327 324 323 323 322 325 328 329 329 329 328 327 326 324 326
295 290 292 295 294 294 298 297 297 295 296 296 299 306 315 322 322 321 320 321 325 331 334 337 336 335 335 339 334 335 336 335 331 328 325 323 322 322 322 320 324 327 327 327 326 325 322 317 313
296 292 296 297 299 298 298 295 298 295 293 297 299 307 315 317 322 322 322 320 323 326 331 336 336 336 334 335 336 336 335 334 331 327 325 324 322 320 319 317 315 315 316 317 318 314 312 312 311
293 297 297 300 301 298 296 298 295 296 297 300 301 311 314 315 322 322 322 323 324 327 327 332 336 335 336 337 336 337 335 334 332 330 327 326 320 318 315 315 313 311 310 308 310 309 309 309 309
293 295 298 300 298 296 299 295 296 296 299 299 303 309 314 315 317 322 323 324 324 325 327 328 331 331 335 336 336 336 335 335 334 333 330 328 323 319 315 313 312 310 310 310 309 307 307 306 306
296 296 297 298 298 297 296 294 295 298 299 298 300 303 309 313 314 314 321 324 324 327 328 328 330 332 332 336 336 334 334 336 334 333 331 333 326 321 316 315 312 311 313 314 312 308 305 306 304
297 291 293 295 297 295 296 291 294 298 298 298 298 297 301 306 311 314 317 322 325 325 330 329 331 332 332 331 334 334 331 333 333 333 332 333 328 327 319 316 314 314 314 312 311 307 304 301 301
291 291 287 293 296 296 293 286 294 297 296 297 297 295 297 300 304 311 314 318 323 324 327 330 332 331 332 329 333 333 330 328 333 334 334 333 332 328 321 316 314 313 312 310 309 304 301 298 295
289 283 286 291 296 295 292 287 295 298 294 294 295 296 297 297 299 302 308 315 317 323 324 328 329 329 330 328 328 328 328 328 328 328 332 332 332 329 324 318 313 313 311 309 306 302 300 296 294
285 285 287 287 292 293 290 290 294 297 296 296 296 296 296 297 299 301 303 309 315 318 323 327 328 327 328 329 323 322 323 324 325 327 327 331 332 329 326 320 313 312 310 305 304 301 299 296 294
289 287 285 289 293 291 290 290 293 296 294 294 295 295 296 298 300 300 302 305 311 314 319 322 325 325 326 326 325 320 322 319 320 322 323 328 330 328 326 321 314 312 308 304 303 300 297 294 293
290 287 285 290 293 290 289 290 292 294 296 295 296 294 295 296 298 300 300 301 306 313 317 321 323 323 325 326 326 325 317 314 318 319 320 322 327 328 326 321 315 312 309 305 301 300 296 294 293
288 287 286 287 290 289 287 286 288 293 294 295 296 297 297 297 298 298 299 299 303 307 313 318 321 322 324 322 315 310 311 309 311 312 318 317 319 326 326 322 317 313 310 305 301 299 298 293 293
286 291 291 290 286 281 288 279 285 291 292 292 294 295 296 296 297 298 299 299 299 306 310 314 317 318 320 316 316 314 316 313 315 314 312 313 314 316 323 321 317 314 311 307 303 300 300 297 292
289 292 290 289 286 284 284 281 284 288 289 292 294 294 294 297 297 298 298 300 300 301 304 306 308 310 316 315 314 313 312 307 304 305 307 307 308 311 314 318 317 314 313 310 305 301 301 299 296
294 292 291 289 286 278 284 283 280 285 289 289 293 294 297 298 297 298 299 300 301 300 301 303 305 305 306 309 307 309 309 304 303 302 304 304 305 306 308 312 315 315 313 311 307 303 301 300 299
291 286 278 277 277 277 282 281 284 289 293 292 293 293 298 298 297 298 300 298 299 300 300 301 302 303 304 304 305 306 307 306 305 304 305 303 304 304 309 311 312 313 313 312 308 304 301 300 299
289 286 279 275 276 277 282 280 286 292 293 294 295 294 295 296 296 297 297 298 298 298 300 301 301 301 302 303 304 305 305 306 307 304 306 307 307 306 306 308 310 312 311 309 307 303 302 300 299
288 285 289 282 272 276 280 284 290 292 293 294 293 294 295 296 298 297 298 298 298 298 299 299 300 301 301 301 302 303 305 305 306 304 304 307 306 305 305 307 307 308 307 307 306 304 301 300 299
290 291 283 282 273 272 277 279 283 288 291 292 294 295 296 296 297 297 298 298 298 298 298 299 299 299 300 300 301 302 304 305 306 304 304 303 305 303 302 304 305 305 305 304 303 301 300 299 299
287 285 286 286 282 277 274 279 287 289 291 293 294 296 296 297 296 297 297 297 297 297 298 298 298 299 299 299 300 300 301 302 303 304 304 302 301 303 301 300 302 302 301 301 301 301 300 297 298
287 287 287 281 279 280 280 283 292 293 294 295 295 296 295 296 297 297 297 297 296 296 296 297 297 298 298 299 299 299 299 300 300 301 301 300 301 299 301 299 298 299 300 299 300 298 298 296 295
Wind_Speed
8 8 1 5 5 6 1 2 5 5 5 2 3 8 8 2 2 2 5 11 14 12 10 8 7 9 10 11 13 13 13 14 13 13 14 13 13 14 18 19 18 18 18 18 18 17 16 16 16
5 5 5 2 5 4 3 3 6 4 5 6 5 4 3 2 3 6 9 11 16 13 10 8 9 10 11 12 12 12 12 14 13 13 14 14 14 14 17 19 17 18 18 17 17 17 16 16 17
3 1 4 4 3 4 4 5 8 4 5 4 4 4 4 3 4 7 9 16 15 12 10 8 10 11 13 14 13 13 13 14 13 13 14 14 14 14 17 18 18 17 17 17 18 16 16 16 14
1 6 5 5 2 4 5 8 8 6 5 4 5 7 4 2 10 7 12 15 14 12 10 11 12 12 14 15 14 14 14 14 13 13 14 14 14 14 16 17 17 16 17 17 17 15 16 15 14
4 4 3 4 1 3 5 7 8 6 7 3 3 5 4 3 7 11 12 12 13 11 11 11 12 13 15 15 14 14 13 14 14 13 14 14 14 15 16 16 16 16 17 16 16 15 16 16 15
4 4 4 3 3 4 3 6 8 6 6 4 5 6 5 7 8 7 8 10 13 12 10 10 11 12 13 14 14 13 13 14 13 14 14 14 14 15 15 16 16 16 16 16 15 16 17 18 18
5 4 3 1 4 3 4 4 6 7 8 4 5 4 2 4 7 8 8 8 13 13 11 8 7 10 12 12 12 13 13 14 13 13 12 12 12 13 14 14 16 17 16 16 15 16 16 17 19
5 5 4 3 0 2 2 2 1 6 2 2 3 5 6 7 9 8 6 9 13 10 12 8 6 6 7 7 11 11 12 12 12 12 11 11 11 11 11 10 13 16 16 16 16 15 15 17 18
3 5 3 3 2 4 4 3 3 1 6 2 3 6 4 12 10 7 5 6 11 10 11 10 8 6 6 6 7 10 11 12 13 11 11 9 5 7 7 8 12 15 16 16 15 14 14 12 12
5 5 3 1 2 3 5 4 5 3 4 2 4 3 8 11 9 8 7 8 7 11 11 11 11 9 7 6 6 6 7 6 7 7 7 6 6 5 7 8 10 12 13 14 15 13 10 8 4
4 6 3 2 2 3 2 2 5 6 2 7 9 9 10 8 8 10 7 7 9 9 8 12 11 12 12 8 6 4 4 5 5 9 7 6 6 5 5 4 4 4 6 3 5 5 4 6 5
2 2 4 1 2 3 2 6 1 6 6 1 8 16 11 10 13 13 10 8 9 9 8 11 13 11 11 8 8 8 7 6 6 8 9 5 5 5 4 4 5 5 3 5 5 4 5 6 6
3 0 5 5 3 1 2 1 4 5 8 2 8 10 15 13 12 9 9 6 6 8 8 8 8 8 10 10 8 8 8 9 9 8 10 7 8 7 7 4 4 5 5 4 4 5 5 5 6
1 2 4 4 3 1 1 3 2 7 7 6 9 13 11 13 16 8 10 13 11 9 11 8 9 8 8 11 11 8 7 10 9 9 8 11 9 8 8 7 6 5 7 5 6 5 4 4 5
2 2 1 4 5 1 3 5 9 10 3 7 9 9 10 13 10 15 17 16 17 12 14 14 12 10 9 7 9 8 6 6 8 8 10 10 11 10 10 8 8 7 6 8 7 6 5 5 5
2 4 2 3 7 2 5 8 8 9 8 10 8 8 9 11 12 13 13 15 15 13 16 16 14 14 13 7 8 7 6 5 7 8 9 12 12 12 10 8 7 4 4 6 7 8 6 4 5
3 2 4 2 5 3 3 6 4 7 2 8 9 9 9 10 11 11 14 15 14 17 14 16 16 17 15 10 6 7 8 8 6 6 8 12 13 14 11 9 7 9 5 6 8 6 8 7 5
4 3 3 5 4 3 2 9 11 10 7 11 11 10 10 10 14 13 14 13 13 13 13 15 14 15 15 11 5 4 5 6 6 8 7 12 11 14 12 8 9 10 8 6 7 10 4 6 7
4 3 0 2 2 4 6 8 12 11 7 10 12 11 11 12 10 9 11 12 11 10 11 14 15 15 12 11 11 5 9 4 4 5 9 11 12 15 14 10 10 11 11 11 9 7 10 6 6
2 2 3 1 1 2 4 12 10 11 13 12 13 10 12 8 9 10 9 10 12 15 15 14 15 15 13 10 9 8 4 3 3 4 6 7 10 14 13 13 12 13 10 10 11 12 7 2 10
2 4 3 3 3 2 2 10 6 6 5 7 9 11 9 13 11 10 9 11 12 12 14 15 15 15 14 11 5 3 2 1 3 4 5 6 7 9 14 14 13 14 12 11 14 14 16 10 11
2 1 5 3 4 4 4 8 5 7 11 7 9 10 10 9 8 8 8 8 10 15 12 11 11 13 13 11 11 13 10 11 9 7 4 4 6 7 10 13 13 14 11 13 13 13 14 11 13
5 0 4 3 2 2 2 1 9 5 7 11 10 6 5 6 8 9 8 6 7 8 9 8 9 9 12 13 12 10 10 5 3 3 6 5 5 6 6 10 13 13 11 13 15 15 15 12 11
7 6 7 5 3 3 9 9 7 4 7 2 3 3 3 4 4 5 4 5 1 3 6 7 8 7 7 9 8 12 12 7 5 5 5 4 4 4 5 6 10 12 13 14 14 15 17 14 12
4 6 2 3 3 8 3 2 7 8 9 3 5 4 1 2 1 2 2 2 1 4 5 4 5 6 7 8 8 9 11 11 10 8 6 6 5 5 10 10 11 10 13 13 13 14 15 15 13
8 7 7 8 5 5 4 7 6 10 8 2 4 4 3 5 4 5 6 5 2 3 3 4 5 6 7 8 8 7 8 6 8 9 8 8 9 9 10 11 14 14 11 11 12 10 11 13 12
6 6 6 5 2 4 6 7 9 7 9 9 7 5 6 4 5 6 7 2 4 4 5 6 5 5 7 8 7 8 8 9 9 9 7 8 9 7 9 12 13 14 11 12 13 10 13 12 12
6 5 3 3 2 4 5 6 7 7 13 9 6 6 6 6 8 7 5 4 1 1 1 2 5 7 7 8 7 8 10 10 10 8 11 9 9 9 10 12 12 12 12 12 12 10 10 12 11
2 3 3 4 6 6 2 8 7 8 4 8 7 5 6 7 4 2 0 2 4 4 5 7 7 7 8 8 7 8 8 9 8 10 10 8 7 10 11 12 14 13 13 11 12 12 12 14 13
3 7 7 6 4 4 4 14 3 8 6 7 7 5 2 4 5 5 4 2 5 6 6 8 7 8 8 7 7 9 8 7 8 9 8 7 9 8 10 11 11 12 12 12 14 13 12 14 13
Wind_Direction
324 310 94 38 52 70 241 41 129 92 51 82 79 79 129 99 68 179 147 169 137 146 147 157 150 133 123 113 105 99 95 96 95 96 94 92 90 86 93 92 88 90 88 86 86 87 91 86 70
321 316 43 68 81 80 302 104 83 108 133 101 68 67 57 100 89 114 134 158 143 144 148 152 144 121 123 120 112 109 108 107 105 103 100 97 94 88 96 94 91 89 90 89 89 90 91 79 67
295 215 76 103 108 122 161 140 142 119 118 122 89 65 99 102 86 145 137 144 139 141 147 141 135 136 134 128 129 124 119 114 111 107 104 103 100 92 97 93 89 90 91 92 91 90 86 64 54
352 15 13 82 148 332 102 156 136 110 31 44 109 80 57 242 152 153 137 137 136 142 142 144 146 146 141 141 137 132 127 121 116 112 110 107 107 101 97 94 96 97 96 94 93 90 77 60 57
29 67 26 37 13 133 96 165 141 130 146 154 107 158 92 28 131 128 134 137 129 129 136 146 144 145 144 145 144 140 135 123 121 119 116 115 116 109 105 105 105 103 102 100 96 91 77 65 67
24 84 41 355 147 140 77 146 133 123 133 150 95 111 175 152 125 161 134 135 131 132 135 142 144 143 146 152 149 143 132 127 127 125 125 124 122 118 116 115 113 111 108 103 101 95 82 72 74
114 83 224 291 244 123 165 138 136 143 135 179 153 84 116 157 167 162 152 134 131 137 135 136 148 151 150 154 150 144 140 133 131 130 127 122 121 120 118 117 117 115 111 108 106 98 84 80 80
107 95 351 303 150 120 190 79 76 118 169 155 103 149 185 209 179 155 167 131 132 141 138 142 142 145 151 154 154 147 141 132 124 117 113 107 103 103 107 112 119 118 117 114 111 100 90 87 85
68 67 293 292 318 140 177 108 352 125 114 86 96 136 190 156 155 144 162 126 139 147 149 151 149 156 148 153 158 150 148 134 129 126 126 120 117 112 105 113 118 124 124 121 117 108 94 72 74
91 117 230 296 10 134 175 135 183 117 119 108 73 39 115 134 147 167 182 161 160 155 156 159 162 163 158 161 151 152 153 146 142 142 152 142 126 128 121 117 117 124 125 128 124 110 78 65 66
170 176 203 355 66 46 140 140 192 129 212 206 188 162 151 144 161 174 191 190 173 170 158 164 168 173 169 166 166 159 156 155 151 162 165 154 135 132 127 123 117 119 111 119 97 57 66 80 75
151 213 106 136 36 37 72 307 336 172 217 66 187 164 160 163 175 186 196 198 172 168 170 174 176 174 176 164 171 168 166 169 170 181 180 146 144 146 142 148 149 140 151 131 130 116 106 90 86
131 224 79 123 85 71 29 311 252 265 257 202 116 153 176 182 184 192 198 203 195 183 187 185 166 179 176 167 174 173 179 180 182 185 185 158 162 163 153 164 165 163 153 143 137 127 118 108 97
169 107 154 147 182 162 127 267 66 266 243 203 156 186 187 187 194 170 186 202 202 197 202 190 186 179 170 183 183 185 187 185 179 185 189 173 170 166 168 169 181 181 170 154 141 136 129 120 112
84 39 314 194 187 169 127 311 231 235 288 208 219 197 197 206 192 198 197 199 199 199 194 200 194 187 193 186 182 184 182 181 180 185 189 178 173 170 170 172 183 190 165 146 138 129 118 117 105
116 56 32 294 137 221 104 271 282 293 187 227 230 224 227 219 205 209 202 197 198 197 189 192 194 194 197 197 195 187 189 184 189 183 185 183 180 171 167 170 179 168 163 146 152 149 136 133 123
351 199 204 273 199 127 136 269 270 5 135 252 251 251 234 239 243 218 205 200 190 197 188 188 188 191 193 188 190 189 189 201 205 180 181 187 183 177 172 176 170 167 169 165 154 150 152 150 130
195 210 272 204 233 118 207 258 279 283 266 250 248 244 239 239 236 217 212 201 196 189 187 182 184 190 194 195 185 199 191 198 191 199 193 183 186 180 176 177 164 167 170 164 160 153 144 150 145
135 132 134 165 214 153 225 262 268 276 273 255 249 245 243 239 237 219 214 203 193 187 175 177 179 187 181 193 199 198 206 189 201 195 192 185 184 182 180 173 170 173 177 177 173 146 146 142 136
168 131 282 63 139 156 279 276 257 256 254 235 245 243 239 247 254 245 210 200 192 193 193 185 183 181 188 189 203 210 183 209 195 194 198 189 178 178 181 171 175 181 175 174 171 165 154 142 171
164 167 218 210 327 324 22 294 303 285 247 255 254 244 244 228 235 241 231 204 196 191 194 192 187 181 185 181 139 113 110 63 199 214 208 204 178 187 182 179 178 178 183 184 179 176 176 167 199
201 253 224 135 72 240 76 285 278 269 283 297 271 259 254 252 251 238 227 203 200 209 199 190 180 172 181 170 178 191 203 212 223 228 217 190 178 180 194 178 179 181 186 186 190 188 186 173 183
203 19 129 113 139 28 311 138 271 291 286 270 272 279 268 254 244 256 245 229 209 180 190 177 166 173 183 185 187 188 207 197 180 163 184 200 198 189 192 182 182 185 188 195 190 190 196 190 183
151 74 41 41 79 285 204 184 281 214 220 256 349 79 113 90 79 59 69 64 81 161 174 182 185 189 172 178 176 188 201 181 183 192 192 187 206 212 203 205 198 196 195 194 195 193 199 196 202
96 88 339 347 356 234 339 220 241 278 249 239 234 238 145 138 71 308 296 300 147 165 179 185 180 203 187 184 187 190 198 194 205 195 199 180 188 199 219 220 220 211 207 199 194 195 199 203 201
195 161 159 196 203 270 327 246 262 251 293 187 32 100 42 333 285 291 289 265 229 143 126 154 177 203 202 201 206 203 195 197 207 199 195 205 210 209 198 213 228 222 207 205 196 195 202 200 207
208 208 189 88 19 45 234 293 311 317 311 331 340 19 74 47 357 340 345 88 134 157 180 190 198 218 214 214 210 210 208 209 209 204 202 203 207 202 200 202 215 222 206 202 196 197 201 199 200
137 170 70 358 157 268 276 275 224 304 286 269 80 58 25 21 16 15 55 86 76 191 238 232 234 228 225 221 217 220 218 219 220 201 212 204 201 190 189 200 207 212 214 204 197 198 201 196 203
128 179 175 147 153 180 275 263 225 226 200 112 113 90 54 49 29 336 239 170 176 181 191 216 226 232 238 228 225 227 228 223 218 221 221 211 196 195 195 193 201 205 206 205 204 204 200 202 204
161 187 156 143 238 230 179 253 104 122 127 124 103 70 162 165 195 210 197 202 217 223 220 223 223 228 231 235 229 233 236 229 228 230 225 201 211 202 198 191 198 205 205 201 206 204 201 202 203